DMSP 5D-2 F13 DEB

Satellite information

Favourite Embed

Satellite Type and Status

DEBRISIN ORBIT

Key statistics

Satellite DMSP 5D-2 F13 DEB at a glance.

Uptime

11223

Days in orbit

Revolutions

≈ 14.4

Per day

Orbit

SSO

Sun Synchronous Orbit

Inclination

98.8

Latest

Satellite identification and parameters

Extended collection of information and parameters for DMSP 5D-2 F13 DEB.

Object identification

Identified? True

Debris? True

Object name: DMSP 5D-2 F13 DEB

International designator: 1995-015FJ

Object number (NORAD): 40611

Object ID (CCSDS): 40611

Country: UNITED STATES OF AMERICA (US)

Current information (Y/N): Y

RCS size: SMALL

Orbital parameters

Period: 100.287 minutes

Inclination: 98.7852 deg

SMA: 7150.264 km

Apoapsis: 791.864 km

Periapsis: 752.393 km

RAAN: 13.519 deg

Eccentricy: 0.00276009

Argument of periapsis: 327.9121 deg

Mean anomaly: 32.0382 deg

Mean motion: 14.35885057 rev/day

Mean motion (dot): 0.00008065 rev/day2

B* drag term: 0.0027828919 1/REarth

Two-line elements (TLE)

Creation date: Dec. 10, 2025, 7:58 p.m.

Reference frame: TEME

Reference center: EARTH

Epoch: Dec. 10, 2025, 8:33 a.m. UTC

TLE line 0: 0 DMSP 5D-2 F13 DEB

TLE line 1: 1 40611U 95015FJ 25344.35667596 .00008065 00000-0 27829-2 0 9996

TLE line 2: 2 40611 98.7852 13.5190 0027601 327.9121 32.0382 14.35885057551356

Live tracking on map

Real-time ground track for satellite DMSP 5D-2 F13 DEB.

In-orbit conjunctions

A list of the most updated potential collisions computed for object DMSP 5D-2 F13 DEB.

Target Orbit TCA Probability of collision Miss distance Type
SL-8 R/B LEO 2025-09-21 12:29:55 0.0001597117 192.0 (m) ROCKET BODY
FENGYUN 1C DEB SSO 2025-08-12 03:04:57 0.0001530807 74.0 (m) DEBRIS
SL-12 R/B(AUX MOTOR) LEO 2025-04-18 04:05:53 0.0001577649 383.0 (m) ROCKET BODY
FENGYUN 1C DEB SSO 2024-11-12 08:51:58 0.0002842395 159.0 (m) DEBRIS

Associated space launch

Military meteorological satellite

DMSP 5D-2 F13 DEB was lifted into orbit during the mission ‘Atlas E | DMSP-5D2 F13’, on board a Atlas E space rocket.

The launch took place on March 24, 1995, 2:05 p.m. from Space Launch Complex 3W.

For more information about the launch, click the button.

Launch to space Atlas E | DMSP-5D2 F13
Atlas E | DMSP-5D2 F13

Agency: N/A

Status: Launch Successful

Launch date: March 24, 1995, 2:05 p.m. UTC

Rocket: Atlas E

Launch pad: Space Launch Complex 3W

Location: Vandenberg SFB, CA, USA

...

Latest news about this satellite

There are no fresh news available about this satellite. Check back as we update our databases every day.


Newsletter sign-up

Weekly statistics, charts and insights to help you stay on top of the space industry.